This is the latest recevied weather packets stored in our database for station/object LZ1NAG-10. If no packets are shown the sender has not sent any weather packets the latest 10 day(s).
| Time | Temp. | Humidity | Pressure | Rain* | Wind** | Luminosity | Snow |
|---|---|---|---|---|---|---|---|
| 1777665695 | -0.56° C | 55% | 1027.3 hPa | - | - | - | - |
| 1777664794 | -1.11° C | 55% | 1027.4 hPa | - | - | - | - |
| 1777663895 | -1.11° C | 55% | 1027.3 hPa | - | - | - | - |
| 1777662994 | -0.56° C | 55% | 1027.3 hPa | - | - | - | - |
| 1777662094 | 0° C | 55% | 1027.2 hPa | - | - | - | - |
| 1777661194 | 0° C | 55% | 1027.1 hPa | - | - | - | - |
| 1777660294 | 0.56° C | 56% | 1027 hPa | - | - | - | - |
| 1777659394 | 1.11° C | 56% | 1027.1 hPa | - | - | - | - |
| 1777658493 | 1.67° C | 55% | 1026.8 hPa | - | - | - | - |
| 1777657593 | 2.78° C | 55% | 1026.6 hPa | - | - | - | - |
| 1777656693 | 3.33° C | 55% | 1026.6 hPa | - | - | - | - |
| 1777655793 | 3.89° C | 55% | 1026.6 hPa | - | - | - | - |
| 1777654893 | 3.89° C | 55% | 1026.6 hPa | - | - | - | - |
| 1777653992 | 3.89° C | 55% | 1026.5 hPa | - | - | - | - |
| 1777653091 | 4.44° C | 55% | 1026.6 hPa | - | - | - | - |
| 1777652191 | 5° C | 54% | 1026.5 hPa | - | - | - | - |
| 1777651291 | 5.56° C | 54% | 1026.5 hPa | - | - | - | - |
| 1777650391 | 6.11° C | 53% | 1026.4 hPa | - | - | - | - |
| 1777649491 | 6.67° C | 53% | 1026.7 hPa | - | - | - | - |
| 1777647690 | 6.67° C | 53% | 1026.9 hPa | - | - | - | - |
| 1777646790 | 6.67° C | 53% | 1026.8 hPa | - | - | - | - |
| 1777645890 | 6.11° C | 54% | 1026.8 hPa | - | - | - | - |
| 1777644990 | 6.11° C | 54% | 1026.7 hPa | - | - | - | - |
| 1777644090 | 6.67° C | 54% | 1026.8 hPa | - | - | - | - |
| 1777643189 | 7.22° C | 54% | 1026.9 hPa | - | - | - | - |
* Rain since midnight (hover to see other rain measurements)
** Current wind speed in m/s (hover to see current wind gust speed)